Time,TemperatureF,DewpointF,PressureIn,WindDirection,WindDirectionDegrees,WindSpeedMPH,WindSpeedGustMPH,Humidity,HourlyPrecipIn,Conditions,Clouds,dailyrainin,SoftwareType,DateUTC
2013-03-04 00:00:00,55.5,51.4,30.09,SSE,167,2.0,5.0,86,0.00,,---,0.00,VWS V14.00,2013-03-04 08:00:00,
2013-03-04 00:01:00,55.1,51.3,30.07,SSE,161,2.0,5.0,87,0.00,,---,0.00,VWS V14.00,2013-03-04 08:01:00,
2013-03-04 00:30:00,55.7,51.3,30.08,East,101,1.0,6.0,85,0.00,,---,0.00,VWS V14.00,2013-03-04 08:30:00,
2013-03-04 00:31:00,55.4,51.6,30.08,SSE,161,3.0,5.0,87,0.00,,---,0.00,VWS V14.00,2013-03-04 08:31:00,
2013-03-04 01:00:00,55.3,50.9,30.08,East,101,0.0,2.0,85,0.00,,---,0.00,VWS V14.00,2013-03-04 09:00:00,
2013-03-04 01:01:00,55.5,51.4,30.09,SSE,167,2.0,5.0,86,0.00,,---,0.00,VWS V14.00,2013-03-04 09:01:00,
2013-03-04 01:30:00,55.0,50.6,30.08,East,101,0.0,2.0,85,0.00,,---,0.00,VWS V14.00,2013-03-04 09:30:00,
2013-03-04 01:31:00,55.7,51.3,30.08,East,101,1.0,6.0,85,0.00,,---,0.00,VWS V14.00,2013-03-04 09:31:00,
2013-03-04 02:00:00,54.3,49.9,30.07,ESE,102,0.0,3.0,85,0.00,,---,0.00,VWS V14.00,2013-03-04 10:00:00,
2013-03-04 02:01:00,55.3,50.9,30.08,East,101,0.0,2.0,85,0.00,,---,0.00,VWS V14.00,2013-03-04 10:01:00,
2013-03-04 02:30:00,53.6,49.5,30.08,East,99,0.0,1.0,86,0.00,,---,0.00,VWS V14.00,2013-03-04 10:30:00,
2013-03-04 02:31:00,55.0,50.6,30.08,East,101,0.0,2.0,85,0.00,,---,0.00,VWS V14.00,2013-03-04 10:31:00,
2013-03-04 03:00:00,53.7,49.3,30.08,East,98,0.0,1.0,85,0.00,,---,0.00,VWS V14.00,2013-03-04 11:00:00,
2013-03-04 03:01:00,54.3,49.9,30.07,ESE,102,0.0,3.0,85,0.00,,---,0.00,VWS V14.00,2013-03-04 11:01:00,
2013-03-04 03:30:00,53.1,48.4,30.08,East,92,0.0,1.0,84,0.00,,---,0.00,VWS V14.00,2013-03-04 11:30:00,
2013-03-04 03:31:00,53.6,49.5,30.08,East,99,0.0,1.0,86,0.00,,---,0.00,VWS V14.00,2013-03-04 11:31:00,
2013-03-04 04:00:00,53.0,48.6,30.08,East,92,0.0,1.0,85,0.00,,---,0.00,VWS V14.00,2013-03-04 12:00:00,
2013-03-04 04:01:00,53.7,49.3,30.08,East,98,0.0,1.0,85,0.00,,---,0.00,VWS V14.00,2013-03-04 12:01:00,
2013-03-04 04:30:00,53.1,48.7,30.08,East,92,0.0,2.0,85,0.00,,---,0.00,VWS V14.00,2013-03-04 12:30:00,
2013-03-04 04:31:00,53.1,48.4,30.08,East,92,0.0,1.0,84,0.00,,---,0.00,VWS V14.00,2013-03-04 12:31:00,
2013-03-04 05:00:00,52.3,48.2,30.09,East,92,0.0,1.0,86,0.00,,---,0.00,VWS V14.00,2013-03-04 13:00:00,
2013-03-04 05:01:00,53.0,48.6,30.08,East,92,0.0,1.0,85,0.00,,---,0.00,VWS V14.00,2013-03-04 13:01:00,
2013-03-04 05:30:00,52.8,49.0,30.10,East,92,0.0,0.0,87,0.00,,---,0.00,VWS V14.00,2013-03-04 13:30:00,
2013-03-04 05:31:00,53.1,48.7,30.08,East,92,0.0,2.0,85,0.00,,---,0.00,VWS V14.00,2013-03-04 13:31:00,
2013-03-04 06:00:00,53.7,49.0,30.11,East,92,0.0,1.0,84,0.00,,---,0.00,VWS V14.00,2013-03-04 14:00:00,
2013-03-04 06:01:00,52.3,48.2,30.09,East,92,0.0,1.0,86,0.00,,---,0.00,VWS V14.00,2013-03-04 14:01:00,
2013-03-04 06:30:00,55.0,49.9,30.13,East,92,0.0,0.0,83,0.00,,---,0.00,VWS V14.00,2013-03-04 14:30:00,
2013-03-04 06:31:00,52.8,49.0,30.10,East,92,0.0,0.0,87,0.00,,---,0.00,VWS V14.00,2013-03-04 14:31:00,
2013-03-04 07:00:00,57.5,50.7,30.13,East,101,0.0,3.0,78,0.00,,---,0.00,VWS V14.00,2013-03-04 15:00:00,
2013-03-04 07:01:00,53.7,49.0,30.11,East,92,0.0,1.0,84,0.00,,---,0.00,VWS V14.00,2013-03-04 15:01:00,
2013-03-04 07:30:00,59.1,51.2,30.13,SSE,159,2.0,4.0,75,0.00,,---,0.00,VWS V14.00,2013-03-04 15:30:00,
2013-03-04 07:31:00,55.0,49.9,30.13,East,92,0.0,0.0,83,0.00,,---,0.00,VWS V14.00,2013-03-04 15:31:00,
2013-03-04 08:00:00,59.1,51.5,30.13,SSE,147,3.0,4.0,76,0.00,,---,0.00,VWS V14.00,2013-03-04 16:00:00,
2013-03-04 08:01:00,57.5,50.7,30.13,East,101,0.0,3.0,78,0.00,,---,0.00,VWS V14.00,2013-03-04 16:01:00,
2013-03-04 08:30:00,59.1,51.2,30.13,SSE,159,2.0,4.0,75,0.00,,---,0.00,VWS V14.00,2013-03-04 16:30:00,
2013-03-04 08:31:00,59.1,51.2,30.13,SSE,159,2.0,4.0,75,0.00,,---,0.00,VWS V14.00,2013-03-04 16:31:00,
2013-03-04 09:00:00,60.7,53.8,30.14,SSE,159,2.0,5.0,78,0.00,,---,0.00,VWS V14.00,2013-03-04 17:00:00,
2013-03-04 09:01:00,59.1,51.5,30.13,SSE,147,3.0,4.0,76,0.00,,---,0.00,VWS V14.00,2013-03-04 17:01:00,
2013-03-04 09:30:00,60.2,53.0,30.13,South,180,3.0,4.0,77,0.00,,---,0.00,VWS V14.00,2013-03-04 17:30:00,
2013-03-04 10:00:00,60.1,52.9,30.13,South,180,1.0,3.0,77,0.00,,---,0.00,VWS V14.00,2013-03-04 18:00:00,
2013-03-04 10:01:00,60.7,53.8,30.14,SSE,159,2.0,5.0,78,0.00,,---,0.00,VWS V14.00,2013-03-04 18:01:00,
2013-03-04 10:30:00,64.6,54.6,30.12,South,180,0.0,1.0,70,0.00,,---,0.00,VWS V14.00,2013-03-04 18:30:00,
2013-03-04 10:31:00,60.2,53.0,30.13,South,180,3.0,4.0,77,0.00,,---,0.00,VWS V14.00,2013-03-04 18:31:00,
2013-03-04 11:00:00,65.0,54.2,30.12,South,180,0.0,1.0,68,0.00,,---,0.00,VWS V14.00,2013-03-04 19:00:00,
2013-03-04 11:01:00,60.1,52.9,30.13,South,180,1.0,3.0,77,0.00,,---,0.00,VWS V14.00,2013-03-04 19:01:00,
2013-03-04 11:30:00,64.5,54.5,30.12,West,275,0.0,4.0,70,0.00,,---,0.00,VWS V14.00,2013-03-04 19:30:00,
2013-03-04 11:31:00,64.6,54.6,30.12,South,180,0.0,1.0,70,0.00,,---,0.00,VWS V14.00,2013-03-04 19:31:00,
2013-03-04 12:00:00,66.1,53.6,30.10,West,277,1.0,4.0,64,0.00,,---,0.00,VWS V14.00,2013-03-04 20:00:00,
2013-03-04 12:01:00,65.0,54.2,30.12,South,180,0.0,1.0,68,0.00,,---,0.00,VWS V14.00,2013-03-04 20:01:00,
2013-03-04 12:30:00,61.0,53.0,30.09,West,271,1.0,6.0,75,0.00,,---,0.00,VWS V14.00,2013-03-04 20:30:00,
2013-03-04 12:31:00,64.5,54.5,30.12,West,275,0.0,4.0,70,0.00,,---,0.00,VWS V14.00,2013-03-04 20:31:00,
2013-03-04 13:00:00,66.4,54.7,30.09,West,272,0.0,4.0,66,0.00,,---,0.00,VWS V14.00,2013-03-04 21:00:00,
2013-03-04 13:01:00,66.1,53.6,30.10,West,277,1.0,4.0,64,0.00,,---,0.00,VWS V14.00,2013-03-04 21:01:00,
2013-03-04 13:30:00,64.0,53.2,30.08,West,279,1.0,4.0,68,0.00,,---,0.00,VWS V14.00,2013-03-04 21:30:00,
2013-03-04 13:31:00,61.0,53.0,30.09,West,271,1.0,6.0,75,0.00,,---,0.00,VWS V14.00,2013-03-04 21:31:00,
2013-03-04 14:00:00,66.9,54.3,30.07,West,279,0.0,3.0,64,0.00,,---,0.00,VWS V14.00,2013-03-04 22:00:00,
2013-03-04 14:01:00,66.4,54.7,30.09,West,272,0.0,4.0,66,0.00,,---,0.00,VWS V14.00,2013-03-04 22:01:00,
2013-03-04 14:30:00,65.6,53.5,30.07,WSW,238,0.0,2.0,65,0.00,,---,0.00,VWS V14.00,2013-03-04 22:30:00,
2013-03-04 14:31:00,64.0,53.2,30.08,West,279,1.0,4.0,68,0.00,,---,0.00,VWS V14.00,2013-03-04 22:31:00,
2013-03-04 15:00:00,63.0,53.1,30.07,SW,223,1.0,3.0,70,0.00,,---,0.00,VWS V14.00,2013-03-04 23:00:00,
2013-03-04 15:01:00,66.9,54.3,30.07,West,279,0.0,3.0,64,0.00,,---,0.00,VWS V14.00,2013-03-04 23:01:00,
2013-03-04 15:30:00,62.2,53.5,30.07,WSW,255,0.0,3.0,73,0.00,,---,0.00,VWS V14.00,2013-03-04 23:30:00,
2013-03-04 15:31:00,65.6,53.5,30.07,WSW,238,0.0,2.0,65,0.00,,---,0.00,VWS V14.00,2013-03-04 23:31:00,
2013-03-04 16:00:00,61.1,52.8,30.08,WSW,255,0.0,2.0,74,0.00,,---,0.00,VWS V14.00,2013-03-05 00:00:00,
2013-03-04 16:01:00,63.0,53.1,30.07,SW,223,1.0,3.0,70,0.00,,---,0.00,VWS V14.00,2013-03-05 00:01:00,
2013-03-04 16:30:00,59.1,52.3,30.09,WSW,256,0.0,2.0,78,0.00,,---,0.00,VWS V14.00,2013-03-05 00:30:00,
2013-03-04 16:31:00,62.2,53.5,30.07,WSW,255,0.0,3.0,73,0.00,,---,0.00,VWS V14.00,2013-03-05 00:31:00,
2013-03-04 17:00:00,58.4,51.9,30.10,WSW,255,0.0,1.0,79,0.00,,---,0.00,VWS V14.00,2013-03-05 01:00:00,
2013-03-04 17:01:00,61.1,52.8,30.08,WSW,255,0.0,2.0,74,0.00,,---,0.00,VWS V14.00,2013-03-05 01:01:00,
2013-03-04 17:30:00,59.1,52.3,30.09,WSW,256,0.0,2.0,78,0.00,,---,0.00,VWS V14.00,2013-03-05 01:30:00,
2013-03-04 17:31:00,59.1,52.3,30.09,WSW,256,0.0,2.0,78,0.00,,---,0.00,VWS V14.00,2013-03-05 01:31:00,
2013-03-04 18:00:00,56.7,52.6,30.11,South,185,1.0,3.0,86,0.00,,---,0.00,VWS V14.00,2013-03-05 02:00:00,
2013-03-04 18:01:00,58.4,51.9,30.10,WSW,255,0.0,1.0,79,0.00,,---,0.00,VWS V14.00,2013-03-05 02:01:00,
2013-03-04 18:30:00,55.8,52.0,30.12,South,178,3.0,6.0,87,0.00,,---,0.00,VWS V14.00,2013-03-05 02:30:00,
2013-03-04 19:00:00,55.7,51.9,30.13,South,179,2.0,4.0,87,0.00,,---,0.00,VWS V14.00,2013-03-05 03:00:00,
2013-03-04 19:01:00,56.7,52.6,30.11,South,185,1.0,3.0,86,0.00,,---,0.00,VWS V14.00,2013-03-05 03:01:00,
2013-03-04 19:30:00,55.7,51.3,30.14,South,179,0.0,2.0,85,0.00,,---,0.00,VWS V14.00,2013-03-05 03:30:00,
2013-03-04 19:31:00,55.8,52.0,30.12,South,178,3.0,6.0,87,0.00,,---,0.00,VWS V14.00,2013-03-05 03:31:00,
2013-03-04 20:00:00,55.4,50.7,30.14,South,174,0.0,1.0,84,0.00,,---,0.00,VWS V14.00,2013-03-05 04:00:00,
2013-03-04 20:01:00,55.7,51.9,30.13,South,179,2.0,4.0,87,0.00,,---,0.00,VWS V14.00,2013-03-05 04:01:00,
2013-03-04 20:30:00,55.6,50.8,30.14,SSE,165,0.0,2.0,84,0.00,,---,0.00,VWS V14.00,2013-03-05 04:30:00,
2013-03-04 20:31:00,55.7,51.3,30.14,South,179,0.0,2.0,85,0.00,,---,0.00,VWS V14.00,2013-03-05 04:31:00,
2013-03-04 21:00:00,56.1,51.3,30.14,ESE,119,0.0,3.0,84,0.00,,---,0.00,VWS V14.00,2013-03-05 05:00:00,
2013-03-04 21:01:00,55.4,50.7,30.14,South,174,0.0,1.0,84,0.00,,---,0.00,VWS V14.00,2013-03-05 05:01:00,
2013-03-04 21:30:00,56.1,51.3,30.14,ESE,105,0.0,3.0,84,0.00,,---,0.00,VWS V14.00,2013-03-05 05:30:00,
2013-03-04 21:31:00,55.6,50.8,30.14,SSE,165,0.0,2.0,84,0.00,,---,0.00,VWS V14.00,2013-03-05 05:31:00,
2013-03-04 22:00:00,56.1,51.3,30.14,ESE,105,0.0,2.0,84,0.00,,---,0.00,VWS V14.00,2013-03-05 06:00:00,
2013-03-04 22:01:00,56.1,51.3,30.14,ESE,119,0.0,3.0,84,0.00,,---,0.00,VWS V14.00,2013-03-05 06:01:00,
2013-03-04 22:30:00,55.9,51.8,30.14,ESE,105,0.0,2.0,86,0.00,,---,0.00,VWS V14.00,2013-03-05 06:30:00,
2013-03-04 22:31:00,56.1,51.3,30.14,ESE,105,0.0,3.0,84,0.00,,---,0.00,VWS V14.00,2013-03-05 06:31:00,
2013-03-04 23:00:00,55.4,52.2,30.15,ESE,115,1.0,3.0,89,0.00,,---,0.00,VWS V14.00,2013-03-05 07:00:00,
2013-03-04 23:01:00,56.1,51.3,30.14,ESE,105,0.0,2.0,84,0.00,,---,0.00,VWS V14.00,2013-03-05 07:01:00,
2013-03-04 23:30:00,55.1,52.2,30.15,ESE,116,0.0,2.0,90,0.00,,---,0.00,VWS V14.00,2013-03-05 07:30:00,
2013-03-04 23:31:00,55.9,51.8,30.14,ESE,105,0.0,2.0,86,0.00,,---,0.00,VWS V14.00,2013-03-05 07:31:00,